This demonstration page uses our WeatherBlox Daily Observations layout. Learn more.

Left ArrowRight Arrow

41.12389, -100.76542

Hourly Observations for July 11, 2015

Temp ( °F °C ) Dew Point ( °F °C ) Humidity (%) Winds ( mph kmh ) Pressure ( in mb ) Visibility ( mi km ) Precip ( " mm )
12:53 am 00:53 Clear with Light Rain 69 20.6 65 18.3 87 87 E 5 7 29.87 1012 10 16 0.00 0.03
1:53 am 01:53 Clear with Light Rain 67 19.4 63 17.2 87 87 SE 6 9 29.85 1011 10 16 0.00 0.03
2:53 am 02:53 Clear 64 17.8 60 15.6 87 87 ESE 6 9 29.86 1011 10 16 0.00 0.03
3:53 am 03:53 Clear 62 16.7 59 15 90 90 Calm 29.85 1011 10 16 0.00 0.03
4:53 am 04:53 Clear 64 17.8 60 15.6 87 87 ESE 5 7 29.86 1011 10 16 0.00 0.00
5:53 am 05:53 Clear 66 18.9 61 16.1 84 84 E 6 9 29.88 1012 10 16 0.00 0.00
6:53 am 06:53 Sunny 62 16.7 59 15 90 90 Calm 29.91 1013 10 16 0.00 0.00
7:53 am 07:53 Partly Cloudy 66 18.9 61 16.1 84 84 NW 8 13 29.94 1014 10 16 0.00 0.00
8:53 am 08:53 Sunny 70 21.1 62 16.7 76 76 VRB 5 7 29.93 1014 10 16 0.00 0.00
9:53 am 09:53 Sunny 73 22.8 65 18.3 76 76 WSW 3 6 29.94 1014 10 16 0.00 0.00
10:53 am 10:53 Sunny 78 25.6 66 18.9 67 67 Calm 29.91 1013 10 16 0.00 0.00
11:53 am 11:53 Sunny 82 27.8 67 19.4 60 60 VRB 3 6 29.90 1013 10 16 0.00 0.00
12:53 pm 12:53 Sunny 85 29.4 65 18.3 51 51 VRB 3 6 29.89 1012 10 16 0.00 0.00
1:53 pm 13:53 Sunny 89 31.7 65 18.3 45 45 VRB 6 9 29.89 1012 10 16 0.00 0.00
2:53 pm 14:53 Sunny 91 32.8 64 17.8 41 41 S 7 11 29.88 1012 10 16 0.00 0.00
3:53 pm 15:53 Sunny 88 31.1 63 17.2 43 43 SSE 6 9 29.88 1012 10 16 0.00 0.00
4:53 pm 16:53 Sunny 86 30 68 20 55 55 SE 7 11 29.89 1012 10 16 0.00 0.00
5:53 pm 17:53 Sunny 89 31.7 66 18.9 47 47 ESE 13 20 29.86 1011 10 16 0.00 0.00
6:53 pm 18:53 Sunny 88 31.1 67 19.4 50 50 SE 8 13 29.87 1012 10 16 0.00 0.00
7:53 pm 19:53 Sunny 86 30 69 20.6 57 57 ESE 9 15 29.87 1011 10 16 0.00 0.00
8:53 pm 20:53 Sunny 80 26.7 71 21.7 74 74 E 6 9 29.88 1012 10 16 0.00 0.00
9:53 pm 21:53 Clear 74 23.3 70 21.1 88 88 ESE 5 7 29.88 1012 10 16 0.00 0.00
10:53 pm 22:53 Clear 73 22.8 70 21.1 90 90 ESE 7 11 29.89 1012 10 16 0.00 0.00
11:53 pm 23:53 Clear 70 21.1 68 20 93 93 SE 3 6 29.89 1012 10 16 0.00 0.00

Powered by AerisWeather